{"data":{"norad_id":58980,"intl_designator":"2024-031R","name":"STARLINK-31353","alt_names":[],"object_type":"PAYLOAD","status":"ACTIVE","operator":null,"country":"US","launch_date":"2024-02-15","launch_site_code":"AFWTR","launch_vehicle":null,"mission":null,"orbit_class":"UNKNOWN","rcs_meters":null,"size_class":null,"mass_kg":null,"dimensions":null,"purposes":["comms"],"wikipedia_slug":null,"has_3d_model":false,"image_url":null,"decayed_at":null,"tle_current":{"epoch":"2026-09-20T21:51:41.404896Z","epoch_age_seconds":120226,"freshness":"FRESH","line1":"1 58980U 24031R   26263.91089589  .00000930  00000+0  38652-4 0  9997","line2":"2 58980  53.1586 107.6975 0001172  83.0981 277.0155 15.34394180146438","mean_motion":15.3439418,"eccentricity":0.0001172,"inclination_deg":53.1586,"raan_deg":107.6975,"arg_perigee_deg":83.0981,"mean_anomaly_deg":277.0155,"bstar":3.8652e-5,"rev_number":14643,"period_min":93.848114048503,"perigee_km":461.91879002478,"apogee_km":463.52228703181,"semimajor_km":6840.8575385283,"source":"CELESTRAK","updated_at":"2026-09-21T09:00:34.021757Z"}}}